{"data":{"norad_id":66819,"intl_designator":"2025-278AE","name":"STARLINK-35989","alt_names":[],"object_type":"PAYLOAD","status":"ACTIVE","operator":null,"country":"US","launch_date":"2025-12-01","launch_site_code":"AFETR","launch_vehicle":null,"mission":null,"orbit_class":"UNKNOWN","rcs_meters":null,"size_class":null,"mass_kg":null,"dimensions":null,"purposes":["comms"],"wikipedia_slug":null,"has_3d_model":false,"image_url":null,"decayed_at":null,"tle_current":{"epoch":"2026-09-20T21:40:51.313152Z","epoch_age_seconds":51681,"freshness":"FRESH","line1":"1 66819U 25278AE  26263.90337168  .00008180  00000+0  30642-3 0  9994","line2":"2 66819  43.0026  91.9715 0001118 270.0204  90.0519 15.27581174 45065","mean_motion":15.27581174,"eccentricity":0.0001118,"inclination_deg":43.0026,"raan_deg":91.9715,"arg_perigee_deg":270.0204,"mean_anomaly_deg":90.0519,"bstar":0.00030642,"rev_number":4506,"period_min":94.266676266331,"perigee_km":482.27850045104,"apogee_km":483.81266087608,"semimajor_km":6861.1825806636,"source":"CELESTRAK","updated_at":"2026-09-21T09:00:36.019160Z"}}}